Preview of NWS' New Version of Forecast
This preview is not operational and should not be used for support decisions.
Latest weather observations around

Homer, Homer Airport (PAHO)

Using English Units (Switch to International System of Units)
Date/ Time (AKDT) Wind (mph) Vis. (mi) Weather Sky Cond. Temp (°F) Rel. Humidity Wind Chill (°F) Heat Index (°F) Pressure Precip. (in)
Air Dwpt 6 hour Altimeter (inHg) Sea level (inHg) 1 hr 3 hr 6 hr
Max Min
Apr 26 05:53 Calm 10 Clear CLR 30 25     81%     30.2 30.21      
Apr 26 04:53 Calm 10 Clear CLR 29 24     82%     30.2 30.2      
Apr 26 03:53 Calm 10 Clear CLR 29 24     82%     30.19 30.19      
Apr 26 02:53 Calm 10 Clear CLR 33 27     78%     30.18 30.19      
Apr 26 01:53 3 10 Clear CLR 32 26     78% 29   30.17 30.17      
Apr 26 00:53 Calm 10 Clear CLR 34 27     75%     30.16 30.16      
Apr 25 23:53 Calm 10 Clear CLR 35 28     75%     30.15 30.15      
Apr 25 22:53 NE 5 10 Clear CLR 34 28     79% 30   30.14 30.14      
Apr 25 21:53 NNE 5 10 Clear CLR 40 31     70% 37   30.12 30.12     0
Apr 25 20:53 NE 3 10 Mostly Cloudy FEW070 BKN095 43 32     65% 41   30.1 30.1      
Apr 25 19:53 WSW 7 10 Partly Cloudy SCT070 SCT090 45 32     60% 41   30.09 30.09 0    
Apr 25 18:53 SW 5 10 Clear   44 31     60% 41   30.09 30.09 0 0  
Apr 25 17:53 S 6 10 Mostly Cloudy BKN070 BKN095 44 31     60% 41   30.09 30.09      
Apr 25 16:53 SSW 8 10 Cloudy OVC060 43 32     65% 38   30.08 30.08      
Apr 25 15:53 SW 7 10 Cloudy OVC060 41 32     70% 36   30.08 30.08     0
Apr 25 14:53 SW 7 10 Cloudy OVC075 42 31     64% 38   30.08 30.08      
Apr 25 13:53 SSW 5 10 Cloudy OVC070 40 31     70% 37   30.06 30.07 0    
Apr 25 12:53 5 10 Cloudy OVC049 41 31     67% 38   30.06 30.06 0 0  
Apr 25 11:53 E 5 10 Cloudy OVC060 40 30     67% 37   30.05 30.06      
Apr 25 10:53 E 5 10 Cloudy BKN060 OVC070 39 31     72% 36   30.04 30.04      
Apr 25 09:53 E 6 10 Clear CLR 38 32     79% 33   30.03 30.04      
Apr 25 08:53 NE 5 10 Mostly Cloudy BKN070 37 33     85% 33   30.03 30.03      
Apr 25 07:53 Calm 10 Mostly Clear FEW075 34 32     92%     30.02 30.02      
Apr 25 06:53 Calm 10 Cloudy FEW060 SCT075 OVC110 34 32     92%     30.01 30.01      
Apr 25 05:53 Calm 10 Cloudy OVC080 33 31     92%     30 30.01      
Apr 25 04:53 Calm 10 Cloudy BKN080 OVC090 34 31     88%     30 30      
Apr 25 03:53 NE 3 10 Cloudy OVC060 35 31     85% 32   30 30     0
Apr 25 02:53 NNE 3 10 Cloudy OVC070 35 32     88% 32   30 30.01      
Apr 25 01:53 NNW 3 10 Cloudy OVC080 34 32     92% 31   29.99 30      
Apr 25 00:53 Calm 10 Mostly Cloudy BKN120 34 33     96%     29.98 29.99   0  
Apr 24 23:53 ENE 6 10 Cloudy OVC055 35 33     92% 30   29.98 29.98 0    
Apr 24 23:20 ENE 9 10 Unknown Precipitation FEW009 OVC039 36 33     89% 29   29.98   0    
Apr 24 22:53 E 10 10 Cloudy OVC045 36 33     89% 29   29.97 29.98      
Apr 24 21:53 ENE 10 10 Cloudy OVC041 36 31     82% 29   29.96 29.97     0
Apr 24 20:53 ENE 13 10 Cloudy SCT055 OVC070 37 32     82% 29   29.96 29.96      
Apr 24 19:53 ENE 11 10 Cloudy BKN044 OVC055 37 33     85% 29   29.96 29.96 0    
Apr 24 18:53 NE 15 10 Cloudy BKN045 OVC060 38 30     73% 29   29.96 29.96   0  
Apr 24 17:53 E 13 10 Cloudy BKN060 OVC070 40 29     65% 32   29.95 29.95 0    
Apr 24 16:53 ENE 16 10 Cloudy OVC060 43 20     39% 35   29.95 29.95      
Apr 24 15:53 N 16 10 Cloudy BKN060 OVC075 43 17     35% 35   29.96 29.96      
Apr 24 14:53 NNE 15 10 Cloudy FEW065 BKN080 OVC095 41 20     43% 33   29.97 29.97      
Apr 24 13:53 NE 10 10 Cloudy OVC100 41 21     45% 35   29.98 29.98      
Apr 24 12:53 ENE 14 10 Clear CLR 40 20     44% 32   29.99 30      
Apr 24 11:53 ENE 10 10 Clear CLR 40 18     41% 33   30 30.01      
Apr 24 10:53 ENE 8 10 Clear CLR 39 17     41% 33   30 30      
Apr 24 09:53 ENE 9 10 Clear CLR 37 17     44% 30   30.02 30.02 0   0
Apr 24 08:53 ENE 6 10 Unknown Precipitation CLR 35 17     47% 30   30.01 30.01 0    
Apr 24 07:53 ENE 5 10 Clear CLR 30 20     66% 25   30.01 30.01      
Apr 24 06:53 NE 5 10 Clear CLR 26 18     71% 20   30.01 30.01   0  
Apr 24 05:53 NE 7 10 Clear CLR 26 17     68% 18   30.01 30.01 0    
Apr 24 04:53 NE 5 10 Clear CLR 27 17     66% 21   30.01 30.01      
Apr 24 03:53 NNE 6 10 Mostly Cloudy BKN055 26 18     71% 19   30.01 30.01     0
Apr 24 02:53 NE 3 10 Partly Cloudy SCT049 25 17     71% 21   30.01 30.01      
Apr 24 01:53 Calm 10 Clear CLR 27 18     68%     29.99 30      
Apr 24 00:53 Calm 10 Partly Cloudy SCT050 28 18     65%     29.97 29.98   0  
Apr 23 23:53 NNE 3 10 Mostly Clear FEW055 26 18     71% 22   29.97 29.97      
Apr 23 22:53 NE 3 10 Mostly Cloudy BKN043 28 18     65% 24   29.96 29.96 0    
Apr 23 21:53 Calm 10 Unknown Precipitation FEW045 30 17     58%     29.94 29.95 0   0
Apr 23 20:53 WSW 8 10 Clear CLR 33 18     53% 26   29.93 29.93      
Apr 23 19:53 WSW 9 10 Clear CLR 33 18     53% 25   29.92 29.93      
Apr 23 18:53 SW 14 10 Clear CLR 34 18     51% 25   29.92 29.92      
Apr 23 17:53 WSW 10 10 Partly Cloudy SCT045 34 18     51% 26   29.91 29.91      
Apr 23 16:53 WSW 11 10 Partly Cloudy SCT055 34 18     51% 26   29.9 29.91      
Apr 23 15:53 WSW 13 10 Partly Cloudy SCT060 35 19     52% 26   29.89 29.89      
Apr 23 14:53 WSW 15 10 Partly Cloudy SCT055 34 20     56% 24   29.88 29.88      
Apr 23 13:53 W 13 10 Clear CLR 35 20     54% 26   29.86 29.87      
Apr 23 12:53 SW 10 10 Partly Cloudy SCT032 32 19     58% 24   29.85 29.85      
Apr 23 11:53 SW 10 10 Mostly Cloudy BKN032 33 19     56% 25   29.83 29.83      
Apr 23 10:53 SW 10 10 Mostly Cloudy BKN034 32 20     61% 24   29.81 29.81      
Apr 23 09:53 SW 11 10 Partly Cloudy SCT038 33 20     58% 24   29.78 29.78      
Apr 23 08:53 SSW 8 10 Mostly Cloudy BKN034 BKN044 33 20     58% 26   29.76 29.76      
Apr 23 07:53 WSW 9 10 Mostly Cloudy BKN040 32 20     61% 24   29.74 29.74      
Apr 23 06:53 WSW 8 10 Mostly Cloudy BKN033 BKN041 31 20     63% 23   29.72 29.72      
Apr 23 05:53 WSW 11 10 Mostly Cloudy BKN031 BKN038 31 21     66% 22   29.7 29.7      
Apr 23 04:53 SW 9 10 Partly Cloudy SCT028 31 21     66% 23   29.69 29.69      
May 14 16:53 W 13 10 Clear   47 31     53% 41   29.94 29.94      
May 14 07:53 SW 14 10 Clear CLR 43 37     79% 36   29.86 29.86      
May 12 05:53 3 10 Partly Cloudy SCT039 43 34     70% 41   30.11 30.11      
May 12 04:53 Calm 10 Mostly Cloudy FEW036 BKN110 43 34     70%     30.11 30.11      
Notice The following observation data may not be complete
Jun 10 11:53 ESE 9 10 Mostly Cloudy BKN055   41      %     29.8 29.8      
Notice The following observation data may not be complete
Jun 10 08:53 NW 5 10 Cloudy BKN050 OVC070   43      %     29.78 29.78      
Jun 10 04:53 Calm 10 Cloudy OVC110 53 42     66%     29.75 29.75      
Jun 09 01:53 Calm 10 Cloudy OVC050 53 47     80%     29.69 29.69      
Jun 08 17:53 SW 8 10 Cloudy FEW041 OVC055 55 47     74%     29.66 29.66      
Jun 08 10:53 5 10 Mostly Cloudy BKN017 55 46     72%     29.68 29.68      
Jun 08 07:53 ENE 6 10 Cloudy SCT007 OVC110 51 45     79%     29.7 29.7 0